Location: *
(40.9167°N, 9.5000°E)
Time: 20:15:15
(UTC+00:00)

Cosmos 1741 Rocket - Pass Details

Date: 09 April 2020
Orbit: 762 x 782 km, 74.0° (Epoch: 31 May)

Event Time Altitude Azimuth Distance (km) Brightness Sun altitude
Exits shadow 19:40:59 38° 122° (ESE) 1,184 4.4 -19.4°
Maximum altitude 19:41:43 40° 102° (ESE) 1,146 4.4 -19.5°
Drops below altitude 10° 19:46:38 10° 34° (NE) 2,344 6.5 -20.3°
Sets 19:49:09 0° 27° (NNE) 3,275 7.3 -20.7°
